DW6334 Weather Reports


time (UTC)temp
C
wind
direction
speed
KPH
gust
KPH
rain 1hr
cm
rain 24hr
cm
rain mn
cm
humidity
%
barometer
mb
20260906150336 30 294 0.0 6.4 0.00 0.00 0.00 84 1015.1
20260906144847 29 277 1.6 3.2 0.00 0.00 0.00 87 1015.1
20260906144341 29 277 0.0 4.8 0.00 0.00 0.00 89 1015.0
20260906143835 28 277 1.6 4.8 0.00 0.00 0.00 89 1015.1
20260906143331 28 277 0.0 1.6 0.00 0.00 0.00 91 1015.0
20260906142848 28 277 0.0 4.8 0.00 0.00 0.00 91 1015.1
20260906142344 28 277 0.0 3.2 0.00 0.00 0.00 93 1015.1
20260906141844 27 277 0.0 4.8 0.00 0.00 0.00 93 1015.1
20260906141341 27 277 1.6 4.8 0.00 0.00 0.00 92 1015.1
20260906140839 27 277 0.0 3.2 0.00 0.00 0.00 93 1015.0
20260906140336 27 277 0.0 3.2 0.00 0.00 0.00 93 1015.0
20260906135832 27 276 0.0 3.2 0.00 0.00 0.00 94 1015.0
20260906135331 27 277 0.0 0.0 0.00 0.00 0.00 94 1015.0
20260906134848 27 276 0.0 3.2 0.00 0.00 0.00 94 1015.0
20260906134342 26 277 0.0 3.2 0.00 0.00 0.00 94 1015.0
20260906133334 26 277 1.6 4.8 0.00 0.00 0.00 95 1015.1
20260906132829 26 276 0.0 1.6 0.00 0.00 0.00 95 1015.1
20260906132347 26 277 0.0 1.6 0.00 0.00 0.00 95 1015.1
20260906131334 25 276 0.0 4.8 0.00 0.00 0.00 95 1015.2
20260906130348 25 277 0.0 1.6 0.00 0.00 0.00 95 1015.1
20260906125842 25 276 0.0 1.6 0.00 0.00 0.00 95 1015.1
20260906125338 25 276 0.0 1.6 0.00 0.00 0.00 95 1015.0
20260906124831 25 276 0.0 0.0 0.00 0.00 0.00 95 1014.9
20260906123839 25 276 0.0 0.0 0.00 0.00 0.00 95 1015.0
20260906123337 25 276 0.0 0.0 0.00 0.00 0.00 95 1015.0
20260906122835 25 276 0.0 0.0 0.00 0.00 0.00 95 1015.0
20260906121835 25 276 0.0 0.0 0.00 0.00 0.00 95 1014.9
20260906120836 24 276 0.0 0.0 0.00 0.00 0.00 95 1014.9
20260906120331 24 276 0.0 0.0 0.00 0.00 0.00 95 1014.9
20260906115847 24 276 0.0 0.0 0.00 0.00 0.00 95 1014.8
20260906114336 24 276 0.0 0.0 0.00 0.00 0.00 95 1014.8
20260906113832 24 276 0.0 0.0 0.00 0.00 0.00 95 1014.8
20260906112845 24 276 0.0 0.0 0.00 0.00 0.00 95 1014.8
20260906112341 24 276 0.0 0.0 0.00 0.00 0.00 95 1014.7
20260906111347 24 276 0.0 0.0 0.00 0.00 0.00 95 1014.7
20260906110846 24 276 0.0 0.0 0.00 0.00 0.00 95 1014.7
20260906110341 24 276 0.0 0.0 0.00 0.00 0.00 95 1014.6
20260906105341 24 276 0.0 0.0 0.00 0.00 0.00 95 1014.5
20260906104839 24 276 0.0 0.0 0.00 0.00 0.00 95 1014.5
20260906104337 24 276 0.0 0.0 0.00 0.00 0.00 95 1014.3
20260906103837 24 276 0.0 0.0 0.00 0.00 0.00 95 1014.3
20260906102834 24 276 0.0 0.0 0.00 0.00 0.00 95 1014.1
20260906100835 23 276 0.0 0.0 0.00 0.00 0.00 95 1013.9
20260906100337 23 276 0.0 0.0 0.00 0.00 0.00 95 1014.0
20260906095836 23 276 0.0 0.0 0.00 0.00 0.00 95 1013.9
20260906095335 23 276 0.0 0.0 0.00 0.00 0.00 95 1013.9
20260906094832 23 276 0.0 0.0 0.00 0.00 0.00 95 1013.9
20260906094327 23 276 0.0 0.0 0.00 0.00 0.00 95 1013.8
20260906093846 23 276 0.0 0.0 0.00 0.00 0.00 95 1013.8
20260906093343 23 276 0.0 0.0 0.00 0.00 0.00 95 1013.7
20260906092841 23 276 0.0 0.0 0.00 0.00 0.00 95 1013.7
20260906092339 23 276 0.0 0.0 0.00 0.00 0.00 95 1013.7
20260906091837 24 276 0.0 0.0 0.00 0.00 0.00 95 1013.7
20260906091331 24 276 0.0 0.0 0.00 0.00 0.00 95 1013.7
20260906090850 24 276 0.0 0.0 0.00 0.00 0.00 95 1013.5
20260906090346 24 276 0.0 0.0 0.00 0.00 0.00 95 1013.4
20260906085340 24 276 0.0 0.0 0.00 0.00 0.00 95 1013.4
20260906084337 24 276 0.0 0.0 0.00 0.00 0.00 95 1013.5
20260906083839 24 276 0.0 0.0 0.00 0.00 0.00 95 1013.4
20260906082837 24 276 0.0 0.0 0.00 0.00 0.00 95 1013.4
20260906082332 24 276 0.0 0.0 0.00 0.00 0.00 94 1013.4
20260906081850 24 276 0.0 0.0 0.00 0.00 0.00 94 1013.4
20260906081344 24 276 0.0 0.0 0.00 0.00 0.00 94 1013.4
20260906080842 24 276 0.0 0.0 0.00 0.00 0.00 94 1013.4
20260906080340 24 276 0.0 0.0 0.00 0.00 0.00 94 1013.6
20260906075338 24 276 0.0 0.0 0.00 0.00 0.00 94 1013.5
20260906074835 24 276 0.0 0.0 0.00 0.00 0.00 94 1013.5
20260906073846 24 276 0.0 0.0 0.00 0.00 0.00 94 1013.7
20260906073343 24 276 0.0 0.0 0.00 0.00 0.00 94 1013.7
20260906072839 25 276 0.0 0.0 0.00 0.00 0.00 94 1013.7
20260906072333 25 276 0.0 0.0 0.00 0.00 0.00 94 1013.8
20260906071850 24 276 0.0 0.0 0.00 0.00 0.00 94 1013.8
20260906071344 25 276 0.0 0.0 0.00 0.00 0.00 94 1013.6
20260906070840 25 276 0.0 0.0 0.00 0.00 0.00 94 1013.7
20260906070339 25 276 0.0 0.0 0.00 0.00 0.00 94 1013.7
20260906065833 25 276 0.0 0.0 0.00 0.00 0.00 94 1013.7
20260906065349 25 276 0.0 0.0 0.00 0.00 0.00 94 1013.7
20260906064845 25 276 0.0 0.0 0.00 0.00 0.00 94 1013.7
20260906064343 25 276 0.0 0.0 0.00 0.00 0.00 93 1013.7
20260906063842 25 276 0.0 0.0 0.00 0.00 0.00 93 1013.7
20260906063339 25 276 0.0 0.0 0.00 0.00 0.00 93 1013.7
20260906062836 25 276 0.0 0.0 0.00 0.00 0.00 93 1013.7
20260906062330 25 276 0.0 0.0 0.00 0.00 0.00 93 1013.7
20260906060845 25 276 0.0 0.0 0.00 0.00 0.00 94 1014.0
20260906060343 25 276 0.0 0.0 0.00 0.00 0.00 94 1014.0
20260906055841 25 276 0.0 0.0 0.00 0.00 0.00 93 1014.2
20260906055339 25 276 0.0 0.0 0.00 0.00 0.00 93 1014.1
20260906054838 25 276 0.0 0.0 0.00 0.00 0.00 93 1014.0
20260906053345 25 276 0.0 0.0 0.00 0.00 0.00 93 1014.1
20260906052841 25 276 0.0 0.0 0.00 0.00 0.00 93 1014.0
20260906051833 25 276 0.0 0.0 0.00 0.00 0.00 93 1014.3
20260906051331 25 276 0.0 0.0 0.00 0.00 0.00 93 1014.2
20260906050847 25 276 0.0 0.0 0.00 0.00 0.00 93 1014.2
20260906050342 25 276 0.0 0.0 0.00 0.00 0.00 93 1014.2
20260906045836 25 276 0.0 0.0 0.00 0.00 0.00 93 1014.3
20260906045331 25 276 0.0 0.0 0.00 0.00 0.00 92 1014.3
20260906044849 25 276 0.0 0.0 0.00 0.00 0.00 92 1014.2
20260906044346 25 276 0.0 0.0 0.00 0.00 0.00 92 1014.2
20260906043843 25 276 0.0 0.0 0.00 0.00 0.00 92 1014.4
20260906043341 25 276 0.0 0.0 0.00 0.00 0.00 92 1014.3
20260906042839 25 276 0.0 0.0 0.00 0.00 0.00 92 1014.3
20260906042337 25 276 0.0 0.0 0.00 0.00 0.00 92 1014.4
20260906041833 25 276 0.0 0.0 0.00 0.00 0.00 92 1014.5
20260906040841 25 276 0.0 0.0 0.00 0.00 0.00 92 1014.4
20260906040336 25 276 0.0 0.0 0.00 0.00 0.00 92 1014.4
20260906035350 26 276 0.0 0.0 0.00 0.00 0.00 92 1014.4
20260906033848 26 276 0.0 0.0 0.00 0.00 0.00 92 1014.8
20260906032342 26 276 0.0 0.0 0.00 0.00 0.00 92 1015.0
20260906031835 26 276 0.0 0.0 0.00 0.00 0.00 92 1015.1
20260906030832 26 276 0.0 0.0 0.00 0.00 0.00 92 1015.0
20260906030347 26 276 0.0 0.0 0.00 0.00 0.00 92 1014.9
20260906025842 26 276 0.0 0.0 0.00 0.00 0.00 92 1014.8
20260906025336 26 276 0.0 0.0 0.00 0.00 0.00 92 1014.9
20260906024830 26 276 0.0 0.0 0.00 0.00 0.00 92 1014.9
20260906023846 26 276 0.0 0.0 0.00 0.00 0.00 92 1014.7
20260906023340 26 276 0.0 0.0 0.00 0.00 0.00 92 1014.7
20260906022339 26 276 0.0 0.0 0.00 0.00 0.00 91 1014.5
20260906021838 26 276 0.0 0.0 0.00 0.00 0.00 91 1014.5
20260906021336 26 276 0.0 0.0 0.00 0.00 0.00 91 1014.4
20260906020835 26 276 0.0 0.0 0.00 0.00 0.00 91 1014.4
20260906020331 26 276 0.0 0.0 0.00 0.00 0.00 91 1014.3
20260906015849 26 276 0.0 0.0 0.00 0.00 0.00 90 1014.1
20260906014345 26 276 0.0 0.0 0.00 0.00 0.00 90 1014.0
20260906013339 26 276 0.0 0.0 0.00 0.00 0.00 89 1013.8
20260906012835 27 276 0.0 0.0 0.00 0.00 0.00 89 1013.8
20260906012336 27 276 0.0 0.0 0.00 0.00 0.00 88 1013.7
20260906011832 27 276 0.0 0.0 0.00 0.00 0.00 88 1013.6
20260906011331 27 276 0.0 3.2 0.00 0.00 0.00 87 1013.5
20260906010829 27 276 0.0 1.6 0.00 0.00 0.00 87 1013.4
20260906010346 27 276 0.0 0.0 0.00 0.00 0.00 87 1013.4
20260906005841 27 276 0.0 0.0 0.00 0.00 0.00 87 1013.4
20260906005337 27 276 0.0 0.0 0.00 0.00 0.00 86 1013.3
20260906004837 27 276 0.0 0.0 0.00 0.00 0.00 86 1013.1
20260906004332 27 276 0.0 0.0 0.00 0.00 0.00 85 1013.1
20260906003850 27 276 0.0 0.0 0.00 0.00 0.00 85 1013.1
20260906003344 27 276 0.0 1.6 0.00 0.00 0.00 85 1013.2
20260906002839 28 276 0.0 1.6 0.00 0.00 0.00 84 1013.1
20260906002335 28 276 0.0 0.0 0.00 0.00 0.00 83 1013.1
20260906001832 28 276 0.0 0.0 0.00 0.00 0.00 83 1013.2
20260906001350 28 276 0.0 0.0 0.00 0.00 0.00 83 1013.2
20260906000846 28 276 0.0 0.0 0.00 0.00 0.00 83 1013.3
20260906000348 28 276 0.0 0.0 0.00 0.00 0.00 82 1013.1
20260905235334 29 276 0.0 1.6 0.00 0.00 0.00 81 1013.2
20260905234851 29 276 0.0 1.6 0.00 0.00 0.00 80 1013.2
20260905234345 29 276 0.0 3.2 0.00 0.00 0.00 80 1013.2
20260905233843 29 276 0.0 3.2 0.00 0.00 0.00 79 1013.2
20260905233340 30 277 0.0 0.0 0.00 0.00 0.00 79 1013.3
20260905232838 30 277 0.0 0.0 0.00 0.00 0.00 78 1013.2
20260905232334 30 277 0.0 0.0 0.00 0.00 0.00 78 1013.2
20260905231849 30 277 0.0 0.0 0.00 0.00 0.00 77 1013.1
20260905231345 30 277 0.0 0.0 0.00 0.00 0.00 78 1013.1
20260905230332 30 277 0.0 3.2 0.00 0.00 0.00 77 1013.1
20260905225848 30 277 0.0 3.2 0.00 0.00 0.00 76 1013.1
20260905224837 30 277 0.0 6.4 0.00 0.00 0.00 79 1013.2
20260905224333 30 277 1.6 6.4 0.00 0.00 0.00 79 1013.2
20260905223851 30 274 0.0 3.2 0.00 0.00 0.00 80 1013.2
20260905223345 30 274 0.0 3.2 0.00 0.00 0.00 80 1013.2
20260905222841 30 274 0.0 0.0 0.00 0.00 0.00 82 1013.3
20260905222336 30 274 0.0 1.6 0.00 0.00 0.00 82 1013.3
20260905221852 30 274 0.0 3.2 0.00 0.00 0.00 82 1013.3
20260905221330 30 274 0.0 3.2 0.00 0.00 0.00 82 1013.4
20260905220848 30 275 0.0 4.8 0.00 0.00 0.00 83 1013.6
20260905220347 29 275 0.0 4.8 0.00 0.00 0.00 83 1013.7
20260905215843 29 281 0.0 4.8 0.00 0.10 0.00 84 1013.8
20260905215340 29 290 0.0 3.2 0.00 0.10 0.00 85 1013.8
20260905214836 29 290 0.0 3.2 0.00 0.10 0.00 86 1013.9
20260905214351 29 290 0.0 1.6 0.00 0.10 0.00 86 1013.9
20260905213345 28 290 0.0 1.6 0.00 0.10 0.00 85 1013.8
20260905212840 28 290 0.0 0.0 0.00 0.10 0.00 86 1013.8
20260905212339 28 290 0.0 0.0 0.00 0.10 0.00 85 1013.6
20260905211336 28 290 0.0 3.2 0.00 0.10 0.00 84 1013.6
20260905210833 28 290 0.0 3.2 0.00 0.10 0.00 84 1013.6
20260905210351 28 290 0.0 0.0 0.00 0.10 0.00 84 1013.6
20260905205847 28 290 0.0 3.2 0.00 0.33 0.00 83 1013.7
20260905205342 29 290 0.0 6.4 0.00 0.33 0.00 83 1013.7
20260905204337 29 289 0.0 4.8 0.00 0.33 0.00 83 1013.9
20260905203839 29 289 0.0 3.2 0.00 0.33 0.00 83 1013.9
20260905202840 29 287 1.6 4.8 0.00 0.33 0.00 82 1014.1
20260905202336 29 287 1.6 8.0 0.00 0.33 0.00 81 1014.1
20260905201830 30 306 0.0 4.8 0.00 0.33 0.00 79 1014.2
20260905201348 30 310 0.0 4.8 0.00 0.33 0.00 79 1014.2
20260905200847 30 310 1.6 3.2 0.00 0.33 0.00 78 1014.2
20260905200346 30 311 1.6 8.0 0.00 0.33 0.00 77 1014.2
20260905195842 31 329 1.6 8.0 0.00 0.33 0.00 75 1014.4
20260905195337 32 331 1.6 9.7 0.00 0.33 0.00 73 1014.5
20260905194834 32 311 3.2 9.7 0.00 0.33 0.00 73 1014.5
20260905194331 32 343 1.6 3.2 0.00 0.33 0.00 73 1014.3
20260905193328 31 346 0.0 0.0 0.00 0.33 0.00 73 1014.6
20260905192848 31 346 0.0 4.8 0.00 0.33 0.00 72 1014.8
20260905192346 32 346 1.6 4.8 0.00 0.33 0.00 70 1014.9
20260905191841 32 17 1.6 6.4 0.00 0.33 0.00 69 1014.9
20260905191340 32 17 0.0 6.4 0.00 0.33 0.00 69 1015.0
20260905190836 31 18 1.6 8.0 0.00 0.33 0.00 72 1015.0
20260905190351 31 19 0.0 12.9 0.00 0.33 0.00 72 1015.0
20260905185846 31 17 3.2 12.9 0.00 0.33 0.00 72 1014.9
20260905185342 31 340 3.2 9.7 0.00 0.33 0.00 73 1014.9
20260905184837 31 335 1.6 4.8 0.00 0.33 0.00 76 1014.9
20260905184332 31 335 0.0 3.2 0.00 0.33 0.00 79 1014.9
20260905183850 31 335 0.0 6.4 0.00 0.33 0.00 77 1015.1
20260905183345 31 335 3.2 6.4 0.00 0.33 0.00 74 1015.1
20260905182840 31 333 0.0 4.8 0.00 0.33 0.00 74 1015.0
20260905181343 31 332 1.6 6.4 0.00 0.33 0.00 71 1015.2
20260905180913 31 333 3.2 6.4 0.00 0.33 0.00 73 1015.3
20260905180345 31 333 1.6 6.4 0.00 0.33 0.00 74 1015.3
20260905175343 31 332 1.6 8.0 0.00 0.33 0.00 74 1015.5
20260905174841 31 329 0.0 6.4 0.00 0.33 0.00 77 1015.6
20260905174340 31 327 1.6 11.3 0.00 0.33 0.00 77 1015.8
20260905173837 31 328 1.6 11.3 0.00 0.33 0.00 76 1015.9
20260905173333 31 355 3.2 12.9 0.00 0.33 0.00 78 1016.0
20260905172849 31 5 3.2 9.7 0.00 0.33 0.00 78 1016.0
20260905172332 31 360 3.2 9.7 0.00 0.33 0.00 76 1016.0
20260905171831 31 340 1.6 8.0 0.00 0.33 0.00 79 1016.1
20260905171328 31 344 1.6 8.0 0.00 0.33 0.00 78 1016.1
20260905165839 31 207 1.6 6.4 0.00 0.33 0.00 78 1016.2
20260905165333 30 207 0.0 1.6 0.00 0.33 0.00 79 1016.2
20260905164852 30 207 0.0 3.2 0.00 0.33 0.00 80 1016.3
20260905164348 30 207 0.0 3.2 0.00 0.33 0.00 80 1016.5
20260905163848 30 207 0.0 4.8 0.00 0.33 0.00 81 1016.6
20260905163347 30 207 0.0 4.8 0.00 0.33 0.00 80 1016.6
20260905162845 30 204 0.0 1.6 0.00 0.33 0.00 82 1016.6
20260905162344 30 204 0.0 3.2 0.00 0.33 0.00 82 1016.7
20260905161843 29 204 0.0 3.2 0.00 0.33 0.00 82 1016.7
20260905161339 29 203 0.0 4.8 0.00 0.33 0.00 83 1016.8
20260905160834 29 203 1.6 4.8 0.00 0.33 0.00 84 1016.8
20260905160350 29 197 0.0 4.8 0.00 0.33 0.00 84 1016.9
20260905155341 29 188 0.0 1.6 0.00 0.33 0.00 84 1016.8
20260905154840 28 188 0.0 1.6 0.00 0.33 0.00 86 1016.9
20260905154338 28 188 0.0 4.8 0.00 0.33 0.00 86 1016.9
20260905153835 28 188 1.6 4.8 0.00 0.33 0.00 86 1016.9
20260905153331 28 178 0.0 0.0 0.00 0.33 0.00 86 1016.9
20260905152848 28 178 0.0 0.0 0.00 0.33 0.00 87 1016.9
20260905152347 28 178 0.0 0.0 0.00 0.33 0.00 91 1016.9
20260905151844 27 178 0.0 0.0 0.00 0.33 0.00 91 1017.0
20260905150842 27 178 0.0 0.0 0.00 0.33 0.00 92 1017.1